Weather History for KPIB - May, 2013

Change the Weather History Date:

Saturday, May 25, 2013

  Actual Average Record
Temperature  
Mean Temperature 68 °F -  
Max Temperature 82 °F 84 °F 93 °F (2008)
Min Temperature 55 °F 62 °F 55 °F (1999)
Cooling Degree Days 4    
Growing Degree Days 18 (Base 50)    
Moisture  
Dew Point 52 °F    
Average Humidity 57    
Maximum Humidity 82    
Minimum Humidity 34    
Precipitation  
Precipitation 0.00 in - - ()
Sea Level Pressure  
Sea Level Pressure 30.22 in    
Wind  
Wind Speed 5 mph (NE)    
Max Wind Speed 10 mph    
Max Gust Speed -    
Visibility 10 miles    
Events      
Averages and records for this station are not official NWS values.
T = Trace of Precipitation, MM = Missing Value Source: NWS Daily Summary

Daily Weather History Graph

Daily Weather History Graph

Search for Another Location

Airport or City:

Trip Planner

Search our weather history database for the weather conditions in past years. The results will help you decide how hot, cold, wet, or windy it might be!

Date:

Astronomy

May. 25, 2013 Rise Set
Actual Time 5:55 AM CDT 7:53 PM CDT
Civil Twilight 5:28 AM CDT 8:20 PM CDT
Nautical Twilight 4:55 AM CDT 8:53 PM CDT
Astronomical Twilight 4:20 AM CDT 9:29 PM CDT
Moon 8:42 PM CDT (5/25) 6:21 AM CDT (5/25)
Length of Visible Light 14h 52m
Length of Day
13h 57m
Full, 100% of the Moon is Illuminated
May 25
Full
May 31
Last Quarter
Jun 8
New
Jun 16
First Quarter
Jun 23
Full

Hourly Weather History & Observations

Time (CDT) Temp. Heat Index Dew Point Humidity Pressure Visibility Wind Dir Wind Speed Gust Speed Precip Events Conditions
12:15 AM 62.6 °F - 53.6 °F 72% 30.21 in 10.0 mi NNE 3.5 mph - N/A   Clear
12:35 AM 60.8 °F - 53.6 °F 77% 30.21 in 10.0 mi North 4.6 mph - N/A   Clear
12:55 AM 60.8 °F - 53.6 °F 77% 30.21 in 10.0 mi North 4.6 mph - N/A   Clear
1:15 AM 60.8 °F - 51.8 °F 72% 30.20 in 10.0 mi North 4.6 mph - N/A   Clear
1:35 AM 60.8 °F - 51.8 °F 72% 30.20 in 10.0 mi NNE 4.6 mph - N/A   Clear
1:55 AM 59.0 °F - 51.8 °F 77% 30.19 in 10.0 mi NNE 4.6 mph - N/A   Clear
2:15 AM 60.8 °F - 51.8 °F 72% 30.19 in 10.0 mi NNE 4.6 mph - N/A   Clear
2:35 AM 60.8 °F - 51.8 °F 72% 30.19 in 10.0 mi NNE 4.6 mph - N/A   Clear
2:55 AM 59.0 °F - 51.8 °F 77% 30.19 in 10.0 mi NNE 4.6 mph - N/A   Clear
3:15 AM 59.0 °F - 50.0 °F 72% 30.20 in 10.0 mi NNE 4.6 mph - N/A   Clear
3:55 AM 57.2 °F - 50.0 °F 77% 30.21 in 10.0 mi NNE 5.8 mph - N/A   Clear
4:15 AM 59.0 °F - 50.0 °F 72% 30.21 in 10.0 mi NNE 6.9 mph - N/A   Clear
4:35 AM 57.2 °F - 50.0 °F 77% 30.22 in 10.0 mi NE 6.9 mph - N/A   Clear
4:55 AM 57.2 °F - 50.0 °F 77% 30.22 in 10.0 mi NNE 6.9 mph - N/A   Clear
5:15 AM 57.2 °F - 50.0 °F 77% 30.23 in 10.0 mi NNE 5.8 mph - N/A   Clear
5:35 AM 55.4 °F - 48.2 °F 77% 30.23 in 10.0 mi NNE 4.6 mph - N/A   Clear
5:55 AM 55.4 °F - 48.2 °F 77% 30.24 in 10.0 mi North 5.8 mph - N/A   Partly Cloudy
6:15 AM 55.4 °F - 48.2 °F 77% 30.25 in 10.0 mi North 5.8 mph - N/A   Clear
6:35 AM 55.4 °F - 48.2 °F 77% 30.26 in 10.0 mi North 5.8 mph - N/A   Clear
7:15 AM 59.0 °F - 51.8 °F 77% 30.26 in 7.0 mi Calm Calm - N/A   Clear
7:35 AM 60.8 °F - 50.0 °F 68% 30.27 in 10.0 mi ENE 4.6 mph - N/A   Clear
7:55 AM 62.6 °F - 50.0 °F 63% 30.27 in 10.0 mi ENE 5.8 mph - N/A   Clear
8:15 AM 64.4 °F - 50.0 °F 59% 30.28 in 10.0 mi East 4.6 mph - N/A   Clear
8:35 AM 66.2 °F - 50.0 °F 56% 30.28 in 10.0 mi ENE 5.8 mph - N/A   Partly Cloudy
8:55 AM 68.0 °F - 48.2 °F 49% 30.28 in 10.0 mi East 8.1 mph - N/A   Clear
9:16 AM 69.8 °F - 48.2 °F 46% 30.29 in 10.0 mi East 5.8 mph - N/A   Clear
9:35 AM 71.6 °F - 50.0 °F 46% 30.29 in 10.0 mi East 10.4 mph - N/A   Clear
9:55 AM 71.6 °F - 48.2 °F 43% 30.28 in 10.0 mi ENE 9.2 mph - N/A   Clear
10:15 AM 73.4 °F - 50.0 °F 44% 30.28 in 10.0 mi NE 5.8 mph - N/A   Clear
10:35 AM 73.4 °F - 48.2 °F 41% 30.28 in 10.0 mi East 5.8 mph - N/A   Clear
10:55 AM 75.2 °F - 48.2 °F 38% 30.27 in 10.0 mi ENE 4.6 mph - N/A   Clear
11:15 AM 75.2 °F - 48.2 °F 38% 30.27 in 10.0 mi SSE 3.5 mph - N/A   Partly Cloudy
11:35 AM 75.2 °F - 48.2 °F 38% 30.27 in 10.0 mi NNE 4.6 mph - N/A   Clear
11:55 AM 78.8 °F - 48.2 °F 34% 30.27 in 10.0 mi East 5.8 mph - N/A   Clear
12:15 PM 77.0 °F - 46.4 °F 34% 30.26 in 10.0 mi NNE 5.8 mph - N/A   Clear
12:35 PM 78.8 °F - 51.8 °F 39% 30.25 in 10.0 mi NE 6.9 mph - N/A   Clear
12:55 PM 78.8 °F - 48.2 °F 34% 30.25 in 10.0 mi East 8.1 mph - N/A   Clear
1:16 PM 78.8 °F - 48.2 °F 34% 30.24 in 10.0 mi Calm Calm - N/A   Clear
1:35 PM 80.6 °F - 50.0 °F 34% 30.23 in 10.0 mi North 4.6 mph - N/A   Clear
1:55 PM 78.8 °F - 50.0 °F 36% 30.23 in 10.0 mi Calm Calm - N/A   Clear
2:15 PM 80.6 °F - 51.8 °F 37% 30.22 in 10.0 mi East 4.6 mph - N/A   Partly Cloudy
2:35 PM 80.6 °F - 51.8 °F 37% 30.22 in 10.0 mi East 6.9 mph - N/A   Clear
2:55 PM 82.4 °F 81.4 °F 53.6 °F 37% 30.22 in 10.0 mi NE 3.5 mph - N/A   Clear
3:15 PM 80.6 °F - 51.8 °F 37% 30.21 in 10.0 mi NE 5.8 mph - N/A   Clear
3:35 PM 80.6 °F - 51.8 °F 37% 30.22 in 10.0 mi North 4.6 mph - N/A   Clear
3:55 PM 80.6 °F 80.3 °F 53.6 °F 39% 30.21 in 10.0 mi NNE 6.9 mph - N/A   Clear
4:15 PM 80.6 °F 80.3 °F 53.6 °F 39% 30.21 in 10.0 mi NNE 6.9 mph - N/A   Clear
4:35 PM 82.4 °F 81.4 °F 53.6 °F 37% 30.21 in 10.0 mi ENE 4.6 mph - N/A   Clear
4:55 PM 82.4 °F - 51.8 °F 35% 30.20 in 10.0 mi North 6.9 mph - N/A   Clear
5:16 PM 80.6 °F - 50.0 °F 34% 30.20 in 10.0 mi NNE 5.8 mph - N/A   Clear
5:35 PM 82.4 °F - 51.8 °F 35% 30.20 in 10.0 mi North 6.9 mph - N/A   Clear
5:55 PM 82.4 °F - 51.8 °F 35% 30.20 in 10.0 mi NNE 5.8 mph - N/A   Clear
6:15 PM 80.6 °F - 51.8 °F 37% 30.19 in 10.0 mi NE 4.6 mph - N/A   Clear
6:35 PM 80.6 °F - 51.8 °F 37% 30.19 in 10.0 mi NNE 5.8 mph - N/A   Clear
6:55 PM 78.8 °F - 50.0 °F 36% 30.19 in 10.0 mi NNE 4.6 mph - N/A   Clear
7:15 PM 75.2 °F - 59.0 °F 57% 30.18 in 10.0 mi Calm Calm - N/A   Clear
7:35 PM 73.4 °F - 57.2 °F 57% 30.18 in 10.0 mi Calm Calm - N/A   Clear
7:55 PM 69.8 °F - 57.2 °F 64% 30.18 in 10.0 mi Calm Calm - N/A   Clear
8:15 PM 66.2 °F - 57.2 °F 73% 30.18 in 10.0 mi North - - N/A   Clear
8:35 PM 64.4 °F - 55.4 °F 73% 30.18 in 10.0 mi North - - N/A   Clear
8:55 PM 64.4 °F - 55.4 °F 73% 30.18 in 10.0 mi Calm Calm - N/A   Clear
9:15 PM 64.4 °F - 55.4 °F 73% 30.18 in 10.0 mi Calm Calm - N/A   Clear
9:35 PM 62.6 °F - 55.4 °F 77% 30.19 in 10.0 mi North - - N/A   Clear
9:55 PM 62.6 °F - 55.4 °F 77% 30.20 in 10.0 mi North - - N/A   Clear
10:15 PM 62.6 °F - 55.4 °F 77% 30.20 in 10.0 mi Calm Calm - N/A   Clear
10:35 PM 62.6 °F - 55.4 °F 77% 30.20 in 10.0 mi Calm Calm - N/A   Clear
10:55 PM 62.6 °F - 55.4 °F 77% 30.19 in 10.0 mi Calm Calm - N/A   Clear
11:15 PM 60.8 °F - 55.4 °F 82% 30.19 in 10.0 mi North 3.5 mph - N/A   Clear
11:35 PM 62.6 °F - 53.6 °F 72% 30.19 in 10.0 mi Calm Calm - N/A   Clear
11:55 PM 60.8 °F - 55.4 °F 82% 30.20 in 10.0 mi South 3.5 mph - N/A   Clear